Location: Novo Ouro Preto
(19.8840°S, 43.9844°W)
Time: 09:53:35
(UTC+00:00)

Hubble Space Telescope - Pass Details

Date: 18 September 2020
Orbit: 536 x 540 km, 28.5° (Epoch: 21 October)

Event Time Altitude Azimuth Distance (km) Brightness Sun altitude
Rises 22:36:57 0° 279° (W) 2,683 5.5 -25.6°
Reaches altitude 10° 22:39:16 10° 273° (W) 1,794 4.4 -26.1°
Enters shadow 22:42:32 43° 234° (SW) 763 1.8 -26.9°
